Location: Irma
(52.9170°N, 111.2330°W)
Time: 00:48:30
(UTC-06:00)

Amateur Radio Satellites - All Passes

Search period start: 20 August 2014 00:18
Search period end: 21 August 2014 00:18
Location: Irma, 52.9170°N, 111.2330°W

Satellite Date Start Highest point End Downlink Frequencies (MHz)
Time Altitude Azimuth
MaSat-1 20 Aug 00:51:51 00:56:53 51° 48° (NE) 01:01:28 437.345 MHz
Oscar 16 20 Aug 01:25:43 01:26:54 11° 82° (E) 01:28:06 437.025 USB, Beacon 2401.1428
Sapphire 20 Aug 01:25:51 01:29:37 19° 6° (N) 01:33:24 437.095 MHz 1200 baud AX-25 AFSK
KITSAT 1 20 Aug 01:39:56 01:46:23 27° 107° (ESE) 01:52:50 435.175 FM
PCSat 20 Aug 01:57:04 02:01:07 21° 14° (NNE) 02:05:09 145.825 MHz
Saudisat 1A 20 Aug 02:20:39 02:24:31 31° 120° (ESE) 02:28:25 436.775 MHz
MaSat-1 20 Aug 02:29:23 02:33:51 33° 250° (WSW) 02:37:55 437.345 MHz
Oscar 19 20 Aug 02:29:36 02:34:21 34° 95° (E) 02:39:03 437.125 CW, 437.150 USB
ITAMSAT 1 20 Aug 02:35:30 02:39:11 19° 89° (E) 02:42:51 435.822 SSB
Uribyol 2 20 Aug 02:48:14 02:52:30 25° 92° (E) 02:56:45 436.500 FM
AO-Echo 20 Aug 02:52:31 02:56:33 26° 92° (E) 03:00:30 ?
JAS-1B 20 Aug 02:53:56 03:00:43 30° 86° (E) 03:06:33 435.800 - 435.900 CW/SSB
AO-27 20 Aug 03:00:47 03:05:21 30° 94° (E) 03:09:54 436.795 MHz FM
Oscar 16 20 Aug 03:02:10 03:07:21 62° 102° (ESE) 03:12:30 437.025 USB, Beacon 2401.1428
Sapphire 20 Aug 03:09:52 03:14:43 32° 31° (NNE) 03:19:33 437.095 MHz 1200 baud AX-25 AFSK
TMSAT-1 20 Aug 03:21:26 03:24:59 18° 87° (E) 03:28:31 436.925 FM
OPAL 20 Aug 03:23:52 03:28:13 30° 57° (ENE) 03:32:37 ?
KITSAT 1 20 Aug 03:32:44 03:40:51 88° 129° (SE) 03:49:00 435.175 FM
PCSat 20 Aug 03:40:41 03:45:54 44° 39° (NE) 03:51:05 145.825 MHz
Saudisat 1A 20 Aug 03:59:35 04:03:56 55° 321° (NW) 04:08:19 436.775 MHz
Gurwin Techsat 1B 20 Aug 04:00:58 04:06:05 45° 98° (E) 04:11:09 435.225 FM
Oscar 19 20 Aug 04:08:53 04:13:50 45° 295° (WNW) 04:18:46 437.125 CW, 437.150 USB
ITAMSAT 1 20 Aug 04:14:07 04:19:19 78° 289° (WNW) 04:24:29 435.822 SSB
Uribyol 2 20 Aug 04:27:16 04:32:22 60° 292° (WNW) 04:37:27 436.500 FM
AO-Echo 20 Aug 04:30:59 04:35:38 50° 293° (WNW) 04:40:10 ?
AO-27 20 Aug 04:40:07 04:45:07 50° 294° (WNW) 04:50:06 436.795 MHz FM
Oscar 16 20 Aug 04:42:05 04:46:23 27° 302° (WNW) 04:50:41 437.025 USB, Beacon 2401.1428
JAS-1B 20 Aug 04:44:05 04:52:16 73° 292° (WNW) 04:59:01 435.800 - 435.900 CW/SSB
STRAND 1 20 Aug 04:52:14 04:53:21 11° 44° (NE) 04:54:27 ?
Sapphire 20 Aug 04:53:15 04:58:43 81° 234° (SW) 05:04:09 437.095 MHz 1200 baud AX-25 AFSK
TMSAT-1 20 Aug 05:00:17 05:05:38 86° 287° (WNW) 05:10:56 436.925 FM
OPAL 20 Aug 05:01:59 05:06:53 54° 257° (WSW) 05:11:54 ?
Uosat F 20 Aug 05:10:45 05:15:12 31° 95° (E) 05:19:37 435.120 FM
AO-7 20 Aug 05:13:02 05:20:41 39° 96° (E) 05:28:16 29.400 - 29.500 MHz
PCSat 20 Aug 05:24:13 05:29:26 49° 241° (WSW) 05:34:38 145.825 MHz
KITSAT 1 20 Aug 05:29:33 05:37:09 42° 335° (NNW) 05:44:47 435.175 FM
Saudisat 1A 20 Aug 05:40:56 05:44:24 22° 344° (NNW) 05:47:52 436.775 MHz
Gurwin Techsat 1B 20 Aug 05:41:10 05:45:59 36° 298° (WNW) 05:50:46 435.225 FM
Oscar 19 20 Aug 05:50:46 05:52:00 11° 316° (NW) 05:53:14 437.125 CW, 437.150 USB
ITAMSAT 1 20 Aug 05:54:48 05:58:04 17° 309° (NW) 06:01:19 435.822 SSB
Hamsat 20 Aug 06:01:10 06:02:27 11° 84° (E) 06:03:43 145.90 MHz
Uribyol 2 20 Aug 06:08:23 06:10:54 14° 312° (NW) 06:13:24 436.500 FM
AO-Echo 20 Aug 06:12:23 06:13:20 11° 314° (NW) 06:14:17 ?
AO-27 20 Aug 06:21:43 06:23:32 12° 315° (NW) 06:25:21 436.795 MHz FM
STRAND 1 20 Aug 06:26:32 06:31:23 45° 65° (ENE) 06:36:15 ?
JAS-1B 20 Aug 06:35:16 06:41:26 24° 318° (NW) 06:46:54 435.800 - 435.900 CW/SSB
Sapphire 20 Aug 06:37:57 06:41:21 17° 254° (WSW) 06:44:45 437.095 MHz 1200 baud AX-25 AFSK
TMSAT-1 20 Aug 06:41:15 06:44:52 19° 308° (NW) 06:48:29 436.925 FM
Uosat F 20 Aug 06:49:24 06:54:11 47° 295° (WNW) 06:58:57 435.120 FM
AO-7 20 Aug 07:05:47 07:14:00 66° 298° (WNW) 07:22:09 29.400 - 29.500 MHz
SO-50 20 Aug 07:17:52 07:21:48 30° 120° (ESE) 07:25:50 436.795 FM
Saudisat 1A 20 Aug 07:22:13 07:25:25 19° 8° (N) 07:28:37 436.775 MHz
KITSAT 1 20 Aug 07:27:35 07:34:44 33° 4° (N) 07:41:52 435.175 FM
Hamsat 20 Aug 07:34:47 07:39:12 77° 103° (ESE) 07:43:34 145.90 MHz
JAS-2 20 Aug 07:36:38 07:41:51 61° 102° (ESE) 07:47:00 435.800 - 435.900 CW/SSB, 435.910 FM
STRAND 1 20 Aug 08:06:09 08:10:44 33° 265° (W) 08:15:21 ?
JAS-1B 20 Aug 08:27:28 08:28:56 11° 345° (NNW) 08:30:23 435.800 - 435.900 CW/SSB
Uosat F 20 Aug 08:30:43 08:31:52 11° 315° (NW) 08:33:00 435.120 FM
SO-67 20 Aug 08:34:51 08:38:18 57° 101° (E) 08:41:44 435.3500 MHz FM
UOSAT-12 20 Aug 08:42:51 08:46:16 20° 115° (ESE) 08:49:43 437.025 FM, 437.400 FM
RS-15 20 Aug 08:51:49 08:59:17 22° 99° (E) 09:06:39 29.354 - 29.394 USB, Beacon 29.352 USB
SO-50 20 Aug 08:57:41 09:02:09 57° 321° (NW) 09:06:45 436.795 FM
AO-7 20 Aug 08:59:15 09:05:27 24° 322° (NW) 09:11:37 29.400 - 29.500 MHz
Saudisat 1A 20 Aug 09:02:01 09:06:09 36° 32° (NNE) 09:10:15 436.775 MHz
Hamsat 20 Aug 09:11:44 09:14:40 18° 303° (WNW) 09:17:34 145.90 MHz
JAS-2 20 Aug 09:22:24 09:26:40 25° 304° (WNW) 09:30:50 435.800 - 435.900 CW/SSB, 435.910 FM
KITSAT 1 20 Aug 09:24:15 09:32:06 50° 32° (NNE) 09:39:53 435.175 FM
HO-68 20 Aug 09:53:18 09:59:48 36° 95° (E) 10:06:16 435.675 MHz FM
UKube-1 20 Aug 10:05:22 10:08:46 22° 92° (E) 10:12:08 145.840 MHz, 145.915 MHz
SO-67 20 Aug 10:08:54 10:11:00 15° 300° (WNW) 10:13:05 435.3500 MHz FM
UOSAT-12 20 Aug 10:21:13 10:25:54 82° 315° (NW) 10:30:40 437.025 FM, 437.400 FM
Oscar 11 20 Aug 10:23:42 10:27:09 22° 91° (E) 10:30:34 145.825 FM, Beacon 2401.500 USB
SO-50 20 Aug 10:39:56 10:43:38 23° 344° (NNW) 10:47:24 436.795 FM
Saudisat 1A 20 Aug 10:41:37 10:45:56 54° 233° (SW) 10:50:14 436.775 MHz
AO-7 20 Aug 10:52:26 10:55:22 12° 349° (N) 10:58:17 29.400 - 29.500 MHz
RS-15 20 Aug 10:58:38 11:09:31 70° 124° (SE) 11:20:20 29.354 - 29.394 USB, Beacon 29.352 USB
KITSAT 1 20 Aug 11:19:55 11:27:56 68° 237° (WSW) 11:35:54 435.175 FM
HO-68 20 Aug 11:40:54 11:47:56 62° 296° (WNW) 11:54:56 435.675 MHz FM
UKube-1 20 Aug 11:41:02 11:45:17 53° 291° (WNW) 11:49:31 145.840 MHz, 145.915 MHz
FUNcube-1 20 Aug 11:53:08 11:57:29 63° 102° (ESE) 12:01:55 145.950 - 145.970 MHz USB
JAS-1B 20 Aug 11:56:35 12:02:54 20° 38° (NE) 12:08:50 435.800 - 435.900 CW/SSB
Oscar 11 20 Aug 11:59:22 12:03:39 53° 291° (WNW) 12:07:54 145.825 FM, Beacon 2401.500 USB
UOSAT-12 20 Aug 12:02:38 12:06:42 28° 337° (NNW) 12:10:48 437.025 FM, 437.400 FM
Oscar 19 20 Aug 12:15:29 12:18:58 19° 52° (NE) 12:22:28 437.125 CW, 437.150 USB
SO-50 20 Aug 12:22:08 12:25:40 21° 9° (N) 12:29:16 436.795 FM
ITAMSAT 1 20 Aug 12:23:42 12:25:43 12° 46° (NE) 12:27:44 435.822 SSB
AO-Echo 20 Aug 12:35:23 12:38:02 14° 51° (NE) 12:40:39 ?
Uribyol 2 20 Aug 12:35:34 12:38:27 15° 49° (NE) 12:41:21 436.500 FM
AO-7 20 Aug 12:41:08 12:44:44 14° 17° (NNE) 12:48:18 29.400 - 29.500 MHz
Oscar 16 20 Aug 12:47:01 12:51:28 30° 60° (ENE) 12:55:57 437.025 USB, Beacon 2401.1428
AO-27 20 Aug 12:47:53 12:51:17 18° 52° (NE) 12:54:40 436.795 MHz FM
RS-15 20 Aug 13:11:37 13:22:23 57° 332° (NNW) 13:33:14 29.354 - 29.394 USB, Beacon 29.352 USB
TMSAT-1 20 Aug 13:12:19 13:14:04 12° 45° (NE) 13:15:49 436.925 FM
KITSAT 1 20 Aug 13:16:47 13:21:54 19° 259° (W) 13:27:00 435.175 FM
UKube-1 20 Aug 13:20:07 13:20:35 10° 312° (NW) 13:21:02 145.840 MHz, 145.915 MHz
HO-68 20 Aug 13:29:35 13:34:24 20° 319° (NW) 13:39:13 435.675 MHz FM
FUNcube-1 20 Aug 13:30:17 13:33:32 21° 301° (WNW) 13:36:50 145.950 - 145.970 MHz USB
JAS-1B 20 Aug 13:42:13 13:51:36 52° 60° (ENE) 14:00:15 435.800 - 435.900 CW/SSB
UOSAT-12 20 Aug 13:44:44 13:48:15 20° 2° (N) 13:51:47 437.025 FM, 437.400 FM
Gurwin Techsat 1B 20 Aug 13:49:49 13:54:04 25° 57° (ENE) 13:58:20 435.225 FM
Oscar 19 20 Aug 13:52:28 13:57:38 85° 73° (ENE) 14:02:51 437.125 CW, 437.150 USB
ITAMSAT 1 20 Aug 13:59:08 14:04:09 52° 67° (ENE) 14:09:11 435.822 SSB
SO-50 20 Aug 14:02:56 14:07:24 40° 32° (NNE) 14:11:55 436.795 FM
AO-Echo 20 Aug 14:10:53 14:16:00 66° 70° (ENE) 14:20:58 ?
Uribyol 2 20 Aug 14:11:58 14:17:05 68° 70° (ENE) 14:22:14 436.500 FM
AO-27 20 Aug 14:24:53 14:30:05 81° 72° (ENE) 14:35:18 436.795 MHz FM
Oscar 16 20 Aug 14:25:36 14:30:37 53° 260° (W) 14:35:42 437.025 USB, Beacon 2401.1428
AO-7 20 Aug 14:28:07 14:34:55 29° 43° (NE) 14:41:42 29.400 - 29.500 MHz
TMSAT-1 20 Aug 14:47:47 14:52:50 48° 66° (ENE) 14:57:55 436.925 FM
Uosat F 20 Aug 14:53:40 14:56:49 17° 51° (NE) 14:59:58 435.120 FM
UOSAT-12 20 Aug 15:25:31 15:29:45 31° 26° (NNE) 15:33:58 437.025 FM, 437.400 FM
RS-15 20 Aug 15:26:47 15:37:11 46° 5° (N) 15:47:46 29.354 - 29.394 USB, Beacon 29.352 USB
Gurwin Techsat 1B 20 Aug 15:28:20 15:33:38 69° 257° (WSW) 15:38:58 435.225 FM
JAS-1B 20 Aug 15:32:12 15:41:58 59° 261° (W) 15:51:07 435.800 - 435.900 CW/SSB
Oscar 19 20 Aug 15:34:19 15:37:42 17° 273° (W) 15:41:06 437.125 CW, 437.150 USB
ITAMSAT 1 20 Aug 15:39:27 15:43:56 29° 266° (W) 15:48:26 435.822 SSB
SO-50 20 Aug 15:43:31 15:48:10 54° 233° (SW) 15:52:52 436.795 FM
AO-Echo 20 Aug 15:51:12 15:55:12 22° 269° (W) 15:59:08 ?
Uribyol 2 20 Aug 15:53:04 15:57:03 22° 270° (W) 16:01:04 436.500 FM
AO-27 20 Aug 16:06:42 16:10:16 19° 272° (W) 16:13:51 436.795 MHz FM
JAS-2 20 Aug 16:13:16 16:16:25 15° 47° (NE) 16:19:26 435.800 - 435.900 CW/SSB, 435.910 FM
AO-7 20 Aug 16:18:22 16:26:44 82° 66° (ENE) 16:35:06 29.400 - 29.500 MHz
MaSat-1 20 Aug 16:23:24 16:27:52 37° 112° (ESE) 16:32:38 437.345 MHz
TMSAT-1 20 Aug 16:28:14 16:32:58 33° 266° (W) 16:37:44 436.925 FM
Uosat F 20 Aug 16:29:52 16:34:53 80° 72° (ENE) 16:39:56 435.120 FM
ISS 20 Aug 16:37:50 16:40:54 34° 156° (SSE) 16:43:58 145.800 FM
Hamsat 20 Aug 16:59:42 17:02:39 18° 58° (ENE) 17:05:39 145.90 MHz
UOSAT-12 20 Aug 17:05:38 17:10:25 83° 228° (SW) 17:15:08 437.025 FM, 437.400 FM
OPAL 20 Aug 17:05:53 17:10:08 25° 94° (E) 17:14:23 ?
Gurwin Techsat 1B 20 Aug 17:12:25 17:14:38 13° 277° (W) 17:16:50 435.225 FM
JAS-1B 20 Aug 17:28:21 17:34:18 17° 282° (WNW) 17:40:05 435.800 - 435.900 CW/SSB
RS-15 20 Aug 17:40:36 17:51:36 69° 37° (NE) 18:02:53 29.354 - 29.394 USB, Beacon 29.352 USB
JAS-2 20 Aug 17:54:13 18:00:34 57° 68° (ENE) 18:06:14 435.800 - 435.900 CW/SSB, 435.910 FM
MaSat-1 20 Aug 18:00:07 18:04:57 48° 313° (NW) 18:10:02 437.345 MHz
Uosat F 20 Aug 18:10:52 18:14:18 18° 271° (W) 18:17:45 435.120 FM
AO-7 20 Aug 18:13:24 18:20:26 30° 268° (W) 18:27:31 29.400 - 29.500 MHz
ISS 20 Aug 18:14:05 18:17:24 70° 175° (S) 18:20:44 145.800 FM
Hamsat 20 Aug 18:33:53 18:38:10 72° 257° (WSW) 18:42:31 145.90 MHz
OPAL 20 Aug 18:44:17 18:49:26 63° 294° (WNW) 18:54:34 ?
HO-68 20 Aug 18:44:24 18:48:39 17° 37° (NE) 18:52:54 435.675 MHz FM
UOSAT-12 20 Aug 18:46:56 18:49:55 17° 248° (WSW) 18:52:52 437.025 FM, 437.400 FM
SO-67 20 Aug 19:13:33 19:16:56 50° 71° (ENE) 19:20:20 435.3500 MHz FM
MaSat-1 20 Aug 19:39:47 19:43:19 18° 336° (NNW) 19:46:53 437.345 MHz
JAS-2 20 Aug 19:40:09 19:45:57 32° 266° (W) 19:51:12 435.800 - 435.900 CW/SSB, 435.910 FM
Sapphire 20 Aug 19:41:51 19:46:16 26° 111° (ESE) 19:50:42 437.095 MHz 1200 baud AX-25 AFSK
ISS 20 Aug 19:50:45 19:54:01 54° 195° (SSW) 19:57:17 145.800 FM
RS-15 20 Aug 19:53:18 20:03:44 52° 243° (WSW) 20:14:33 29.354 - 29.394 USB, Beacon 29.352 USB
STRAND 1 20 Aug 20:09:46 20:14:47 54° 101° (E) 20:19:45 ?
PCSat 20 Aug 20:11:36 20:16:43 44° 118° (ESE) 20:21:51 145.825 MHz
OPAL 20 Aug 20:24:31 20:27:25 15° 314° (NW) 20:30:20 ?
HO-68 20 Aug 20:28:03 20:34:53 51° 60° (ENE) 20:41:45 435.675 MHz FM
SO-67 20 Aug 20:48:09 20:50:18 15° 270° (W) 20:52:27 435.3500 MHz FM
UKube-1 20 Aug 21:06:25 21:10:30 41° 66° (ENE) 21:14:37 145.840 MHz, 145.915 MHz
MaSat-1 20 Aug 21:20:18 21:22:29 12° 360° (N) 21:24:39 437.345 MHz
Oscar 10/S400 20 Aug 21:20:51 21:41:12 38° 156° (SSE) 23:22:26 145.825 - 145.975 CW/USB, Beacon 145.810 USB
FUNcube-1 20 Aug 21:21:17 21:23:54 17° 56° (ENE) 21:26:33 145.950 - 145.970 MHz USB
Sapphire 20 Aug 21:23:51 21:29:15 72° 312° (NW) 21:34:43 437.095 MHz 1200 baud AX-25 AFSK
Oscar 11 20 Aug 21:24:24 21:28:22 36° 66° (ENE) 21:32:23 145.825 FM, Beacon 2401.500 USB
ISS 20 Aug 21:27:51 21:30:18 19° 214° (SW) 21:32:44 145.800 FM
STRAND 1 20 Aug 21:49:23 21:53:45 29° 301° (WNW) 21:58:06 ?
PCSat 20 Aug 21:54:56 22:00:10 47° 320° (NW) 22:05:26 145.825 MHz
RS-15 20 Aug 22:08:45 22:13:14 13° 268° (W) 22:17:47 29.354 - 29.394 USB, Beacon 29.352 USB
HO-68 20 Aug 22:15:59 22:22:45 44° 262° (W) 22:29:34 435.675 MHz FM
UKube-1 20 Aug 22:43:05 22:46:51 28° 265° (W) 22:50:39 145.840 MHz, 145.915 MHz
FUNcube-1 20 Aug 22:55:39 22:59:48 77° 256° (WSW) 23:04:02 145.950 - 145.970 MHz USB
MaSat-1 20 Aug 22:58:09 23:01:40 18° 24° (NNE) 23:05:03 437.345 MHz
Oscar 11 20 Aug 23:00:45 23:04:37 31° 265° (W) 23:08:32 145.825 FM, Beacon 2401.500 USB
Sapphire 20 Aug 23:09:06 23:13:36 26° 336° (NNW) 23:18:07 437.095 MHz 1200 baud AX-25 AFSK
PCSat 20 Aug 23:40:47 23:44:53 21° 344° (NNW) 23:49:00 145.825 MHz
